Print Services: Subscribe | Home Delivery Mobile Edition |

 
Site Web Search powered by YAHOO!SEARCH
HOME
NEWS
BUSINESS
TECH
SPORTS
ENTERTAINMENT
LIFE & STYLE
OPINION
MY TOWN
HELP
JOBS
CARS
REAL ESTATE
CLASSIFIEDS
PLACE AD

Moffett NAS, CA
on Monday, August 6, 2012

Monday
Previous Day Next Day
Daily Summary
 ActualAverageRecord
Temperature
Mean Temperature °F 68°F  
Max Temperature 75°F 77°F 95°F (1983)
Min Temperature 57°F 59°F 49°F (1950)
Degree Days
Heating Degree Days 0    
Month to date heating degree days 1  
Since 1 June heating degree days 52  
Since 1 July heating degree days 11  
Cooling Degree Days 1    
Month to date cooling degree days 10  
Year to date cooling degree days 171  
Since 1 June cooling degree days 128  
Growing Degree Days15 (Base °F )  
Moisture
Dew Point 54°F   
Average Humidity 65    
Maximum Humidity 80    
Minimum Humidity 49    
Precipitation
Precipitation 0.00 in 0.00 in 0.02 in (2009)
Month to date precipitation 0.00 0.00  
Year to date precipitation 5.51 9.65  
Since 1 July precipitation 0.00 0.02  
Wind
Wind Speed 7 mph   
Max Wind Speed 16 mph   
Max Gust Speed 20 mph   
Visibility 10 miles   
Events     

Key: T is trace of precipitation, MM is missing value
Source: NWS Daily Summary
Time(PDT)TemperatureDew PointHumidity Pressure Visibility Wind DirectionWind SpeedGust SpeedPrecipitationEvents Conditions
12:09 AM 59.0°F 53.6°F 82% 30.11 in 10.0 miles NW 3.5 mph - N/A   Mostly Cloudy
12:56 AM 59.0°F 53.1°F 81% 30.12 in 10.0 miles Calm Calm - N/A   Overcast
1:56 AM 57.9°F 52.0°F 81% 30.12 in 10.0 miles Calm Calm - N/A   Overcast
2:56 AM 57.9°F 52.0°F 81% 30.12 in 10.0 miles Calm Calm - N/A   Overcast
3:56 AM 57.9°F 52.0°F 81% 30.11 in 10.0 miles Calm Calm - N/A   Overcast
4:56 AM 59.0°F 53.1°F 81% 30.12 in 10.0 miles Calm Calm - N/A   Overcast
5:56 AM 57.9°F 52.0°F 81% 30.13 in 10.0 miles Calm Calm - N/A   Overcast
6:56 AM 59.0°F 53.1°F 81% 30.14 in 10.0 miles Calm Calm - N/A   Overcast
7:56 AM 59.0°F 53.1°F 81% 30.14 in 10.0 miles East 3.5 mph - N/A   Overcast
8:56 AM 61.0°F 53.1°F 75% 30.15 in 10.0 miles NNW 4.6 mph - N/A   Mostly Cloudy
9:19 AM 62.6°F 53.6°F 72% 30.14 in 10.0 miles Calm Calm - N/A   Scattered Clouds
9:56 AM 63.0°F 53.1°F 70% 30.15 in 10.0 miles NNW 4.6 mph - N/A   Scattered Clouds
10:56 AM 64.9°F 54.0°F 68% 30.14 in 10.0 miles North 4.6 mph - N/A   Clear
11:56 AM 68.0°F 54.0°F 61% 30.14 in 10.0 miles North 8.1 mph - N/A   Clear
12:56 PM 69.1°F 55.0°F 61% 30.12 in 10.0 miles North 10.4 mph - N/A   Clear
1:56 PM 72.0°F 55.9°F 57% 30.11 in 10.0 miles North 12.7 mph - N/A   Clear
2:56 PM 73.0°F 55.9°F 55% 30.09 in 10.0 miles North 15.0 mph - N/A   Clear
3:56 PM 73.9°F 54.0°F 50% 30.09 in 10.0 miles North 13.8 mph - N/A   Clear
4:56 PM 73.9°F 54.0°F 50% 30.07 in 10.0 miles NNW 11.5 mph - N/A   Clear
5:56 PM 73.0°F 57.0°F 57% 30.06 in 10.0 miles North 12.7 mph - N/A   Clear
6:56 PM 70.0°F 57.9°F 65% 30.05 in 10.0 miles NNW 12.7 mph - N/A   Clear
7:56 PM 68.0°F 57.9°F 70% 30.06 in 10.0 miles NNW 11.5 mph - N/A   Clear
8:56 PM 64.9°F 57.9°F 78% 30.07 in 10.0 miles North 11.5 mph - N/A   Clear
9:56 PM 64.0°F 57.0°F 78% 30.08 in 10.0 miles North 9.2 mph - N/A   Clear
10:56 PM 63.0°F 55.0°F 75% 30.08 in 10.0 miles North 4.6 mph - N/A   Clear
11:56 PM 63.0°F 55.9°F 78% 30.08 in 10.0 miles Calm Calm - N/A   Clear

Astronomy

Sunrise: 06:17 AM (PDT)
Moon Rise: 10:30 PM (PDT) 8/6
 
Sunset: 08:10 PM (PDT)
Moon Set: 11:03 AM (PDT) 8/6
Moon Phase
 
Aug. 06 Aug. 09 Aug. 17 Aug. 24 Aug. 31

Copyright © 2015 The Weather Underground, Inc.